Regional Weather Roundup
Issued by NWS Newport/Morehead, NC

Current Version | Previous Version | Graphics & Text | Print | Product List | Glossary On
Versions: 1 2 3 4 5 6 7 8 9 10 11 12 13 14 15 16 17 18 19 20 21 22 23 24 25 26 27 28 29 30 31 32 33 34 35 36 37 38 39 40 41 42 43 44 45 46 47 48 49 50
000 ASUS42 KMHX 050412 RWRMHX WEATHER ROUNDUP FOR EASTERN NORTH CAROLINA NATIONAL WEATHER SERVICE NEWPORT/MOREHEAD CITY NC 1100 PM EST WED MAR 04 2015 NOTE: "FAIR" INDICATES FEW OR NO CLOUDS BELOW 12,000 FEET WITH NO SIGNIFICANT WEATHER AND/OR OBSTRUCTIONS TO VISIBILITY NCZ015>017-031-032-045>047-102-103-050500- NORTH COAST CITY SKY/WX TMP DP RH WIND PRES REMARKS EDENTON PTCLDY 61 57 86 S9 29.92S ELIZABETH CITY PTCLDY 62 57 83 S16G23 29.90S KITTY HAWK PTCLDY 62 60 95 SW10G21 29.93R MANTEO PTCLDY 57 55 94 SW17 29.95R $$ NCZ045>047-081-094-103-104-050500- CENTRAL COAST CITY SKY/WX TMP DP RH WIND PRES REMARKS FRISCO CLOUDY 57 57 100 SW10 29.99S FOG SWANQUARTER N/A 55 N/A N/A SW12G22 29.94R $$ NCZ095-097-098-100-101-050500- SOUTHERN COAST CITY SKY/WX TMP DP RH WIND PRES REMARKS BEAUFORT CLOUDY 57 57 100 SW10 30.00S FOG CEDAR ISLAND N/A 63 N/A N/A S13G25 30.03S JACKSONVILLE PTCLDY 67 61 81 SW14G21 29.98R PINEY ISLAND N/A N/A N/A N/A MISG 29.99S WILMINGTON MOCLDY 67 64 90 SW18G25 30.00S $$ NCZ011>013-027>030-043-044-078>080-089-090>093-098-050500- COASTAL PLAIN CITY SKY/WX TMP DP RH WIND PRES REMARKS AHOSKIE CLEAR 66 59 80 S8 29.88F CLINTON PTCLDY 66 63 88 S7 29.95F ELIZABETHTOWN PTCLDY 67 62 84 S9 29.97S GOLDSBORO PTCLDY 66 66 99 S12G17 29.91S GREENVILLE CLEAR 64 61 88 SW10 29.95S HAVELOCK PTCLDY 64 60 87 SW20G30 30.00R KENANSVILLE PTCLDY 65 60 83 S5 29.97S KINSTON PTCLDY 65 61 85 S13 29.95S NEW BERN PTCLDY 65 60 84 SW12 29.98R RICHLANDS PTCLDY 64 61 88 S14G21 29.98S ROCKY MOUNT PTCLDY 66 60 81 S12 29.91R WASHINGTON CLEAR 66 61 82 SW12G21 29.94S WHITEVILLE CLEAR 68 62 80 S12 29.98S $$ AMZ130-135-150-152-154-156-158-170-250-252-270-ANZ085-086-088-633-658-670-050500- MARINE OBSERVATIONS STATION/POSITION TIME TEMP WIND PRES WAVE SWELL AIR SEA DIR/SP/G HT/PER HT/PER (UTC) (F) (DEG/KT/KT) (MB) (FT/S) (FT/S) CHESAPEAKE LIGHT 0300 54 190/ 20/ 20 1011.7 64 E VA BEACH 0350 55 52 220/ 23/ 27 1012.0 7/ 7 DUCK 0300 60 37 200/ 18/ 22 1011.9 2 E DUCK 0311 37 N/A 3/ 8 10 NE DUCK 0322 38 N/A 4/ 7 2/11 OREGON INLET 0300 51 49 200/ 19/ 22 1014.1 HATTERAS CG 0300 58 46 210/ 13/ 18 1015.5 CAPE LOOKOUT 0400 61 220/ 12/ 16 1015.9 BEAUFORT LAB 0300 55 46 220/ 4/ 7 1015.0 27 SE WRIGHTSVLE NOT AVBL 5 SE WRIGHTSVLE NOT AVBL 225 S CAPE HAT 0350 73 74 210/ 19/ 23 1021.4 6/11 3/11 41 SE CHARLESTON 0350 72 69 190/ 19/ 23 1016.0 6/ 6 3/10 $$

USA.gov is the U.S. government's official web portal to all federal, state and local government web resources and services.